Location: Zengebe
(1.4833°N, 32.5167°E)
Time: 09:12:41
(UTC+00:00)

USA 229 - Pass Details

Date: 07 June 2020
Orbit: 980 x 1233 km, 63.4° (Epoch: 24 June)

Event Time Altitude Azimuth Distance (km) Brightness Sun altitude
Rises 01:22:06 0° 338° (NNW) 4,103 6.8 -32.7°
Reaches altitude 10° 01:24:49 10° 338° (NNW) 3,159 6.2 -32.1°
Maximum altitude 01:32:31 87° 67° (ENE) 1,235 3.9 -30.4°
Drops below altitude 10° 01:40:15 10° 156° (SSE) 3,174 6.1 -28.7°
Sets 01:42:59 0° 156° (SSE) 4,123 6.7 -28.1°
